20040327,000009,345599,30.444250,-124.051700,NaN,16.901,32.925,42.417,2261.46,0.0, NaN,15.813,15.781, NaN,23.945,   NaN,14.79,1024.73,73.60,14.60,42.1,39.4,7.2,6.8,25.4,22.1,6.8,6.4,NaN, NaN,NaN,6.9,NaN,1080345610,NaN,NaN,2.4,000010,   NaN,335.1,30.444110,-124.051680,-0.55,NaN,NaN,16.905, NaN,NaN,NaN, NaN, NaN
20040327,000039,345629,30.444450,-124.051980,NaN,16.900,32.911,42.400,2243.59,0.0, NaN,15.815,15.781, NaN,23.935,   NaN,14.73,1024.75,71.82,14.54,41.1,38.7,7.3,7.3,24.7,21.9,7.0,6.9,NaN, NaN,NaN,322.9,NaN,1080345640,NaN,NaN,3.1,000040,   NaN,336.1,30.444310,-124.051960,-0.47,NaN,NaN,16.904, NaN,NaN,NaN, NaN, NaN
20040327,000109,345659,30.444650,-124.052240,NaN,16.898,32.925,42.415,2239.90,0.0, NaN,15.816,15.781, NaN,23.946,   NaN,14.76,1024.82,72.99,14.57,41.5,38.5,6.8,7.0,26.2,22.5,6.5,6.6,NaN, NaN,NaN,282.4,NaN,1080345670,NaN,NaN,3.6,000070,   NaN,334.1,30.444510,-124.052220,-0.61,NaN,NaN,16.902, NaN,NaN,NaN, NaN, NaN
20040327,000139,345689,30.444860,-124.052520,NaN,16.898,32.923,42.413,2255.58,0.0, NaN,15.814,15.781, NaN,23.945,   NaN,14.79,1024.80,73.32,14.60,42.4,38.4,6.4,6.6,27.2,22.4,6.0,6.2,NaN, NaN,NaN,318.9,NaN,1080345700,NaN,NaN,1.3,000100,   NaN,334.0,30.444720,-124.052500,-0.64,NaN,NaN,16.902, NaN,NaN,NaN, NaN, NaN
20040327,000209,345719,30.445080,-124.052800,NaN,16.894,32.924,42.411,2253.64,0.0, NaN,15.814,15.781, NaN,23.946,   NaN,14.79,1024.73,72.81,14.62,41.6,38.4,7.0,6.9,25.2,21.5,6.6,6.4,NaN, NaN,NaN,348.5,NaN,1080345730,NaN,NaN,1.6,000130,   NaN,332.8,30.444940,-124.052790,-0.63,NaN,NaN,16.898, NaN,NaN,NaN, NaN, NaN
20040327,000239,345749,30.445290,-124.053090,NaN,16.896,32.925,42.412,2241.55,0.0, NaN,15.818,15.784, NaN,23.946,   NaN,14.74,1024.82,71.86,14.55,42.9,39.9,7.4,7.1,25.2,22.3,7.0,6.7,NaN, NaN,NaN,290.5,NaN,1080345761,NaN,NaN,3.0,000160,   NaN,333.8,30.445150,-124.053080,-0.58,NaN,NaN,16.900, NaN,NaN,NaN, NaN, NaN
20040327,000309,345779,30.445460,-124.053370,NaN,16.899,32.924,42.414,2241.83,0.0, NaN,15.817,15.783, NaN,23.945,   NaN,14.80,1024.77,73.73,14.65,45.1,43.7,7.4,6.7,27.3,26.5,7.1,6.4,NaN, NaN,NaN,344.5,NaN,1080345790,NaN,NaN,1.6,000190,   NaN,334.5,30.445320,-124.053350,-0.73,NaN,NaN,16.903, NaN,NaN,NaN, NaN, NaN
20040327,000339,345809,30.445580,-124.053610,NaN,16.894,32.924,42.410,2228.25,0.0, NaN,15.817,15.783, NaN,23.946,   NaN,14.77,1024.75,72.59,14.62,46.6,46.4,7.1,6.2,28.7,29.3,7.0,6.1,NaN, NaN,NaN,253.0,NaN,1080345820,NaN,NaN,4.1,000220,   NaN,334.1,30.445440,-124.053590,-0.64,NaN,NaN,16.898, NaN,NaN,NaN, NaN, NaN
20040327,000409,345839,30.445800,-124.053900,NaN,16.896,32.925,42.413,2225.41,0.0, NaN,15.816,15.782, NaN,23.946,   NaN,14.75,1024.78,72.62,14.61,44.6,43.9,7.3,6.7,26.6,26.1,7.0,6.5,NaN, NaN,NaN,358.0,NaN,1080345850,NaN,NaN,3.7,000250,   NaN,335.0,30.445650,-124.053880,-0.68,NaN,NaN,16.900, NaN,NaN,NaN, NaN, NaN
20040327,000439,345868,30.446180,-124.054260,NaN,16.900,32.924,42.416,2200.87,0.0, NaN,15.813,15.780, NaN,23.945,   NaN,14.81,1024.80,74.50,14.66,40.2,37.7,7.5,7.3,24.9,21.5,6.8,6.6,NaN, NaN,NaN,311.8,NaN,1080345880,NaN,NaN,3.8,000280,   NaN,334.1,30.446060,-124.054240,-0.40,NaN,NaN,16.904, NaN,NaN,NaN, NaN, NaN
20040327,000508,345898,30.446760,-124.054670,NaN,16.900,32.924,42.416,2175.74,0.0, NaN,15.815,15.780, NaN,23.945,   NaN,14.80,1024.74,73.27,14.61,34.1,30.0,8.2,8.6,21.8,15.6,6.8,7.1,NaN, NaN,NaN,330.0,NaN,1080345910,NaN,NaN,4.2,000309,   NaN,335.1,30.446630,-124.054660,-0.38,NaN,NaN,16.904, NaN,NaN,NaN, NaN, NaN
20040327,000538,345928,30.447440,-124.055160,NaN,16.900,32.924,42.416,2139.51,0.0, NaN,15.816,15.781, NaN,23.945,   NaN,14.71,1024.81,71.45,14.55,32.0,28.7,8.9,9.4,22.1,16.9,7.1,7.5,NaN, NaN,NaN,310.4,NaN,1080345940,NaN,NaN,6.4,000339,   NaN,341.9,30.447320,-124.055180,-0.49,NaN,NaN,16.904, NaN,NaN,NaN, NaN, NaN
20040327,000608,345957,30.448310,-124.055500,NaN,16.899,32.925,42.415,2009.38,0.0, NaN,15.814,15.781, NaN,23.946,   NaN,14.74,1024.81,72.93,14.59,26.2,24.3,9.4,9.9,24.7,20.8,7.1,7.5,NaN, NaN,NaN,344.0,NaN,1080345970,NaN,NaN,7.2,000369,   NaN,5.6,30.448190,-124.055570,-0.48,NaN,NaN,16.903, NaN,NaN,NaN, NaN, NaN
20040327,000638,345988,30.449210,-124.055320,NaN,16.899,32.925,42.416,1810.95,0.0, NaN,15.815,15.780, NaN,23.946,   NaN,14.76,1024.82,74.01,14.63,8.0,7.2,9.1,9.7,23.8,21.7,6.2,6.9,NaN, NaN,NaN,31.0,NaN,1080346000,NaN,NaN,7.4,000399,   NaN,42.5,30.449140,-124.055440,-0.22,NaN,NaN,16.903, NaN,NaN,NaN, NaN, NaN
20040327,000708,346018,30.449800,-124.054590,NaN,16.894,32.925,42.410,1127.21,0.0, NaN,15.814,15.780, NaN,23.947,   NaN,14.70,1024.77,73.01,14.58,344.4,344.1,9.3,9.5,20.8,19.9,6.2,6.5,NaN, NaN,NaN,44.6,NaN,1080346030,NaN,NaN,5.2,000429,   NaN,66.5,30.449780,-124.054740,-0.10,NaN,NaN,16.898, NaN,NaN,NaN, NaN, NaN
20040327,000738,346048,30.450300,-124.053710,NaN,16.889,32.925,42.406,1388.94,0.0, NaN,15.815,15.779, NaN,23.948,   NaN,14.64,1024.74,72.97,14.53,329.8,327.8,9.8,10.0,17.3,15.3,6.9,7.2,NaN, NaN,NaN,63.3,NaN,1080346060,NaN,NaN,7.5,000459,   NaN,57.1,30.450250,-124.053850,0.44,NaN,NaN,16.893, NaN,NaN,NaN, NaN, NaN
20040327,000808,346078,30.450890,-124.052820,NaN,16.892,32.925,42.409,965.17,0.0, NaN,15.811,15.776, NaN,23.947,   NaN,14.64,1024.74,73.77,14.55,324.6,320.5,9.8,10.6,10.5,6.7,7.0,8.0,NaN, NaN,NaN,59.1,NaN,1080346090,NaN,NaN,8.5,000489,   NaN,59.5,30.450860,-124.052940,0.02,NaN,NaN,16.896, NaN,NaN,NaN, NaN, NaN
20040327,000839,346109,30.451500,-124.051760,NaN,16.891,32.924,42.407,1737.22,0.0, NaN,15.807,15.774, NaN,23.947,   NaN,14.63,1024.65,73.15,14.53,325.5,321.4,10.4,11.1,10.3,6.2,7.4,8.2,NaN, NaN,NaN,47.7,NaN,1080346121,NaN,NaN,6.9,000520,   NaN,61.6,30.451460,-124.051890,0.39,NaN,NaN,16.895, NaN,NaN,NaN, NaN, NaN
20040327,000909,346139,30.452110,-124.050670,NaN,16.892,32.924,42.408,1632.72,0.0, NaN,15.804,15.771, NaN,23.947,   NaN,14.59,1024.77,72.69,14.49,324.5,320.4,10.4,11.3,9.2,5.5,7.4,8.4,NaN, NaN,NaN,36.9,NaN,1080346150,NaN,NaN,9.8,000550,   NaN,60.2,30.452050,-124.050830,0.16,NaN,NaN,16.896, NaN,NaN,NaN, NaN, NaN
20040327,000940,346170,30.452730,-124.049510,NaN,16.891,32.924,42.407,1599.80,0.0, NaN,15.800,15.766, NaN,23.947,   NaN,14.59,1024.74,73.19,14.51,322.8,319.4,10.1,11.2,4.8,2.9,7.0,8.2,NaN, NaN,NaN,51.2,NaN,1080346181,NaN,NaN,9.2,000580,   NaN,62.6,30.452700,-124.049640,0.30,NaN,NaN,16.895, NaN,NaN,NaN, NaN, NaN
20040327,001009,346198,30.453380,-124.048280,NaN,16.900,32.924,42.416,1485.42,0.0, NaN,15.799,15.766, NaN,23.945,   NaN,14.57,1024.77,72.82,14.48,322.3,318.8,10.2,11.2,3.2,1.1,7.0,8.1,NaN, NaN,NaN,70.8,NaN,1080346211,NaN,NaN,8.6,000610,   NaN,60.1,30.453360,-124.048420,0.32,NaN,NaN,16.904, NaN,NaN,NaN, NaN, NaN
20040327,001039,346229,30.454060,-124.047050,NaN,16.886,32.924,42.402,1504.03,0.0, NaN,15.795,15.762, NaN,23.948,   NaN,14.60,1024.72,73.66,14.49,324.0,320.8,10.7,11.3,6.5,3.8,7.2,8.0,NaN, NaN,NaN,53.7,NaN,1080346241,NaN,NaN,9.5,000640,   NaN,62.3,30.454030,-124.047170,0.55,NaN,NaN,16.890, NaN,NaN,NaN, NaN, NaN
20040327,001109,346259,30.454710,-124.045750,NaN,16.888,32.923,42.403,1809.46,0.0, NaN,15.787,15.755, NaN,23.947,   NaN,14.58,1024.72,73.14,14.48,324.1,321.5,10.6,11.4,5.8,4.8,7.1,8.0,NaN, NaN,NaN,67.7,NaN,1080346271,NaN,NaN,9.6,000670,   NaN,62.6,30.454690,-124.045880,0.38,NaN,NaN,16.892, NaN,NaN,NaN, NaN, NaN
20040327,001139,346289,30.455400,-124.044450,NaN,16.885,32.923,42.400,1790.29,0.0, NaN,15.782,15.749, NaN,23.948,   NaN,14.62,1024.74,74.07,14.50,324.4,322.2,10.8,11.6,6.3,5.6,7.2,8.1,NaN, NaN,NaN,52.4,NaN,1080346300,NaN,NaN,10.0,000700,   NaN,60.5,30.455340,-124.044610,0.21,NaN,NaN,16.889, NaN,NaN,NaN, NaN, NaN
20040327,001209,346319,30.456070,-124.043160,NaN,16.887,32.923,42.402,1629.75,0.0, NaN,15.776,15.744, NaN,23.947,   NaN,14.63,1024.76,73.68,14.49,329.1,326.9,11.0,11.4,13.3,11.4,7.1,7.6,NaN, NaN,NaN,55.4,NaN,1080346331,NaN,NaN,10.7,000730,   NaN,63.3,30.456050,-124.043290,0.56,NaN,NaN,16.891, NaN,NaN,NaN, NaN, NaN
20040327,001239,346349,30.456750,-124.041860,NaN,16.882,32.922,42.395,1558.47,0.0, NaN,15.770,15.738, NaN,23.947,   NaN,14.57,1024.75,72.35,14.46,330.5,328.2,11.4,11.6,15.2,12.8,7.4,7.7,NaN, NaN,NaN,60.1,NaN,1080346361,NaN,NaN,9.0,000760,   NaN,60.6,30.456720,-124.041990,0.60,NaN,NaN,16.886, NaN,NaN,NaN, NaN, NaN
20040327,001309,346378,30.457440,-124.040560,NaN,16.887,32.921,42.400,1685.63,0.0, NaN,15.764,15.735, NaN,23.946,   NaN,14.58,1024.74,73.52,14.46,327.7,325.8,11.1,11.5,11.0,9.5,7.3,7.8,NaN, NaN,NaN,58.7,NaN,1080346390,NaN,NaN,9.3,000790,   NaN,62.0,30.457420,-124.040690,0.44,NaN,NaN,16.891, NaN,NaN,NaN, NaN, NaN
20040327,001339,346409,30.458130,-124.039240,NaN,16.876,32.920,42.388,1599.57,0.0, NaN,15.764,15.733, NaN,23.947,   NaN,14.65,1024.78,75.21,14.53,326.7,324.5,10.7,11.1,8.8,7.0,6.8,7.4,NaN, NaN,NaN,67.0,NaN,1080346420,NaN,NaN,9.3,000820,   NaN,63.0,30.458070,-124.039430,0.33,NaN,NaN,16.880, NaN,NaN,NaN, NaN, NaN
20040327,001409,346439,30.458810,-124.037920,NaN,16.866,32.919,42.378,1704.12,0.0, NaN,15.759,15.730, NaN,23.949,   NaN,14.67,1024.72,74.68,14.52,328.6,326.5,11.1,11.0,12.5,9.6,7.2,7.3,NaN, NaN,NaN,58.1,NaN,1080346450,NaN,NaN,8.4,000850,   NaN,62.0,30.458740,-124.038100,0.57,NaN,NaN,16.870, NaN,NaN,NaN, NaN, NaN
20040327,001439,346469,30.459490,-124.036610,NaN,16.860,32.918,42.371,1589.55,0.0, NaN,15.760,15.728, NaN,23.950,   NaN,14.62,1024.78,74.19,14.48,327.2,325.0,11.1,11.4,10.9,8.5,7.3,7.7,NaN, NaN,NaN,75.4,NaN,1080346480,NaN,NaN,10.7,000880,   NaN,61.9,30.459430,-124.036800,0.35,NaN,NaN,16.864, NaN,NaN,NaN, NaN, NaN
20040327,001510,346500,30.460220,-124.035350,NaN,16.854,32.917,42.365,1490.44,0.0, NaN,15.762,15.732, NaN,23.950,   NaN,14.65,1024.71,74.75,14.53,327.4,324.7,11.0,11.5,10.0,8.0,7.2,7.8,NaN, NaN,NaN,57.3,NaN,1080346511,NaN,NaN,8.8,000910,   NaN,63.1,30.460160,-124.035480,0.36,NaN,NaN,16.858, NaN,NaN,NaN, NaN, NaN
20040327,001540,346530,30.460840,-124.034070,NaN,16.851,32.917,42.361,1358.35,0.0, NaN,15.767,15.737, NaN,23.951,   NaN,14.65,1024.77,74.40,14.52,326.0,323.1,10.8,11.2,8.0,6.0,7.1,7.8,NaN, NaN,NaN,51.2,NaN,1080346541,NaN,NaN,9.7,000940,   NaN,61.3,30.460800,-124.034190,0.47,NaN,NaN,16.855, NaN,NaN,NaN, NaN, NaN
20040327,001610,346560,30.461540,-124.032780,NaN,16.847,32.918,42.358,1385.57,0.0, NaN,15.769,15.738, NaN,23.953,   NaN,14.65,1024.73,74.39,14.52,325.4,322.5,11.0,11.5,8.4,5.9,7.4,8.0,NaN, NaN,NaN,44.9,NaN,1080346571,NaN,NaN,10.0,000970,   NaN,62.1,30.461490,-124.032920,0.55,NaN,NaN,16.851, NaN,NaN,NaN, NaN, NaN
20040327,001640,346590,30.462210,-124.031480,NaN,16.846,32.915,42.354,1361.27,0.0, NaN,15.775,15.743, NaN,23.951,   NaN,14.63,1024.71,74.29,14.52,324.9,322.3,11.1,11.7,7.6,5.8,7.4,8.2,NaN, NaN,NaN,55.2,NaN,1080346601,NaN,NaN,9.1,001000,   NaN,62.1,30.462090,-124.031590,0.53,NaN,NaN,16.850, NaN,NaN,NaN, NaN, NaN
20040327,001710,346619,30.462910,-124.030180,NaN,16.836,32.916,42.345,1263.04,0.0, NaN,15.778,15.746, NaN,23.953,   NaN,14.60,1024.73,73.07,14.49,325.9,323.5,11.3,11.7,9.3,7.2,7.5,8.1,NaN, NaN,NaN,48.2,NaN,1080346631,NaN,NaN,9.1,001030,   NaN,61.5,30.462820,-124.030310,0.47,NaN,NaN,16.840, NaN,NaN,NaN, NaN, NaN
20040327,001740,346650,30.463580,-124.028870,NaN,16.840,32.915,42.349,1405.36,0.0, NaN,15.779,15.747, NaN,23.952,   NaN,14.57,1024.70,73.14,14.45,326.0,323.9,11.3,11.7,9.6,7.9,7.5,8.0,NaN, NaN,NaN,56.2,NaN,1080346661,NaN,NaN,9.1,001060,   NaN,63.6,30.463520,-124.029010,0.33,NaN,NaN,16.844, NaN,NaN,NaN, NaN, NaN
20040327,001810,346680,30.464270,-124.027590,NaN,16.840,32.915,42.349,1555.92,0.0, NaN,15.781,15.750, NaN,23.952,   NaN,14.59,1024.70,73.46,14.46,323.9,322.0,11.2,11.9,6.7,5.9,7.6,8.4,NaN, NaN,NaN,68.3,NaN,1080346691,NaN,NaN,10.4,001090,   NaN,61.6,30.464210,-124.027730,0.26,NaN,NaN,16.844, NaN,NaN,NaN, NaN, NaN
20040327,001840,346710,30.464930,-124.026310,NaN,16.845,32.915,42.354,1187.31,0.0, NaN,15.785,15.756, NaN,23.951,   NaN,14.56,1024.70,72.78,14.46,324.0,320.7,11.4,12.1,6.9,4.2,7.8,8.7,NaN, NaN,NaN,52.2,NaN,1080346721,NaN,NaN,9.7,001120,   NaN,61.7,30.464880,-124.026440,0.26,NaN,NaN,16.849, NaN,NaN,NaN, NaN, NaN
20040327,001910,346740,30.465630,-124.025040,NaN,16.852,32.915,42.359,1118.97,0.0, NaN,15.787,15.759, NaN,23.949,   NaN,14.55,1024.71,72.43,14.43,323.2,320.8,11.4,12.4,6.2,5.3,7.8,8.9,NaN, NaN,NaN,56.2,NaN,1080346751,NaN,NaN,9.6,001150,   NaN,63.6,30.465580,-124.025170,0.35,NaN,NaN,16.856, NaN,NaN,NaN, NaN, NaN
20040327,001939,346769,30.466290,-124.023760,NaN,16.850,32.915,42.358,1065.13,0.0, NaN,15.788,15.760, NaN,23.950,   NaN,14.54,1024.73,72.73,14.44,324.1,321.5,11.1,11.8,7.3,5.5,7.5,8.3,NaN, NaN,NaN,54.4,NaN,1080346781,NaN,NaN,10.2,001180,   NaN,62.2,30.466240,-124.023900,0.25,NaN,NaN,16.854, NaN,NaN,NaN, NaN, NaN
20040327,002010,346799,30.466990,-124.022450,NaN,16.857,32.915,42.365,1237.83,0.0, NaN,15.788,15.758, NaN,23.948,   NaN,14.56,1024.75,73.57,14.46,327.0,324.0,10.8,11.0,10.2,6.7,7.0,7.5,NaN, NaN,NaN,54.4,NaN,1080346812,NaN,NaN,8.9,001211,   NaN,62.5,30.466940,-124.022580,0.29,NaN,NaN,16.861, NaN,NaN,NaN, NaN, NaN
20040327,002040,346830,30.467690,-124.021140,NaN,16.865,32.915,42.372,1156.41,0.0, NaN,15.786,15.757, NaN,23.946,   NaN,14.59,1024.68,73.93,14.46,328.3,326.3,11.2,11.1,12.7,9.7,7.3,7.4,NaN, NaN,NaN,62.5,NaN,1080346841,NaN,NaN,9.9,001241,   NaN,62.0,30.467610,-124.021320,0.37,NaN,NaN,16.869, NaN,NaN,NaN, NaN, NaN
20040327,002110,346860,30.468390,-124.019810,NaN,16.856,32.916,42.365,1089.09,0.0, NaN,15.784,15.755, NaN,23.949,   NaN,14.56,1024.69,72.61,14.45,325.9,324.1,11.2,11.6,8.7,7.5,7.4,7.9,NaN, NaN,NaN,56.6,NaN,1080346872,NaN,NaN,10.4,001271,   NaN,63.8,30.468340,-124.019950,0.35,NaN,NaN,16.860, NaN,NaN,NaN, NaN, NaN
20040327,002140,346890,30.469090,-124.018480,NaN,16.859,32.916,42.367,1181.11,0.0, NaN,15.781,15.748, NaN,23.948,   NaN,14.54,1024.69,72.28,14.44,321.3,318.9,10.8,11.9,1.0,1.0,7.3,8.4,NaN, NaN,NaN,57.9,NaN,1080346901,NaN,NaN,10.9,001301,   NaN,60.8,30.469010,-124.018660,0.45,NaN,NaN,16.863, NaN,NaN,NaN, NaN, NaN
20040327,002209,346919,30.469770,-124.017180,NaN,16.857,32.916,42.366,1026.45,0.0, NaN,15.779,15.747, NaN,23.949,   NaN,14.56,1024.66,73.08,14.45,321.5,318.1,10.6,11.5,0.6,358.9,7.1,8.2,NaN, NaN,NaN,67.5,NaN,1080346931,NaN,NaN,10.1,001330,   NaN,61.1,30.469700,-124.017310,0.30,NaN,NaN,16.861, NaN,NaN,NaN, NaN, NaN
20040327,002240,346950,30.470480,-124.015850,NaN,16.858,32.916,42.366,923.29,0.0, NaN,15.778,15.745, NaN,23.948,   NaN,14.58,1024.64,73.22,14.46,322.3,318.4,10.8,11.5,2.0,359.0,7.2,8.2,NaN, NaN,NaN,63.9,NaN,1080346961,NaN,NaN,11.0,001360,   NaN,62.5,30.470420,-124.015990,0.27,NaN,NaN,16.862, NaN,NaN,NaN, NaN, NaN
20040327,002310,346980,30.471190,-124.014520,NaN,16.854,32.916,42.363,938.65,0.0, NaN,15.777,15.744, NaN,23.950,   NaN,14.60,1024.69,73.38,14.48,321.5,317.5,11.1,12.1,1.4,358.9,7.5,8.8,NaN, NaN,NaN,65.7,NaN,1080346991,NaN,NaN,9.7,001390,   NaN,61.7,30.471140,-124.014660,0.23,NaN,NaN,16.858, NaN,NaN,NaN, NaN, NaN
20040327,002340,347010,30.471890,-124.013170,NaN,16.849,32.916,42.358,697.46,0.0, NaN,15.778,15.744, NaN,23.951,   NaN,14.58,1024.65,72.88,14.46,320.7,316.3,11.3,12.3,1.0,358.0,7.9,9.1,NaN, NaN,NaN,75.4,NaN,1080347021,NaN,NaN,10.4,001420,   NaN,63.2,30.471830,-124.013310,0.48,NaN,NaN,16.853, NaN,NaN,NaN, NaN, NaN
20040327,002410,347040,30.472610,-124.011800,NaN,16.846,32.916,42.355,882.59,0.0, NaN,15.778,15.745, NaN,23.951,   NaN,14.57,1024.64,72.80,14.47,320.8,316.2,11.1,12.0,0.9,357.5,7.7,8.8,NaN, NaN,NaN,61.1,NaN,1080347051,NaN,NaN,9.4,001451,   NaN,64.1,30.472530,-124.011970,0.52,NaN,NaN,16.850, NaN,NaN,NaN, NaN, NaN
20040327,002440,347070,30.473310,-124.010490,NaN,16.842,32.916,42.352,966.99,0.0, NaN,15.779,15.746, NaN,23.952,   NaN,14.53,1024.69,72.24,14.45,320.2,316.3,10.8,11.7,359.7,357.4,7.4,8.5,NaN, NaN,NaN,61.6,NaN,1080347081,NaN,NaN,9.3,001481,   NaN,63.6,30.473230,-124.010670,0.29,NaN,NaN,16.846, NaN,NaN,NaN, NaN, NaN
20040327,002510,347100,30.474000,-124.009150,NaN,16.844,32.916,42.353,920.99,0.0, NaN,15.781,15.748, NaN,23.952,   NaN,14.55,1024.72,72.28,14.45,320.6,317.2,10.8,11.8,359.7,358.5,7.4,8.6,NaN, NaN,NaN,46.8,NaN,1080347111,NaN,NaN,9.5,001511,   NaN,60.0,30.473910,-124.009330,0.49,NaN,NaN,16.848, NaN,NaN,NaN, NaN, NaN
20040327,002540,347129,30.474700,-124.007820,NaN,16.839,32.916,42.348,872.24,0.0, NaN,15.782,15.750, NaN,23.953,   NaN,14.59,1024.70,73.68,14.48,323.7,320.1,10.8,11.6,4.0,1.5,7.2,8.2,NaN, NaN,NaN,69.8,NaN,1080347141,NaN,NaN,9.4,001541,   NaN,62.1,30.474630,-124.007960,0.16,NaN,NaN,16.843, NaN,NaN,NaN, NaN, NaN
20040327,002610,347160,30.475400,-124.006510,NaN,16.839,32.916,42.349,900.12,0.0, NaN,15.783,15.754, NaN,23.953,   NaN,14.59,1024.71,73.10,14.47,326.2,323.0,10.9,11.4,7.9,5.0,7.1,7.8,NaN, NaN,NaN,57.1,NaN,1080347171,NaN,NaN,9.2,001571,   NaN,61.6,30.475320,-124.006690,0.57,NaN,NaN,16.843, NaN,NaN,NaN, NaN, NaN
20040327,002640,347190,30.476090,-124.005170,NaN,16.840,32.918,42.351,700.48,0.0, NaN,15.785,15.757, NaN,23.954,   NaN,14.57,1024.66,73.74,14.45,328.0,325.4,11.2,11.4,11.3,8.4,7.3,7.6,NaN, NaN,NaN,70.6,NaN,1080347201,NaN,NaN,10.6,001601,   NaN,62.1,30.476010,-124.005360,0.30,NaN,NaN,16.844, NaN,NaN,NaN, NaN, NaN
20040327,002710,347220,30.476820,-124.003840,NaN,16.842,32.916,42.351,1040.47,0.0, NaN,15.784,15.757, NaN,23.952,   NaN,14.57,1024.62,73.60,14.47,329.0,326.5,11.2,11.3,12.2,9.1,7.2,7.5,NaN, NaN,NaN,49.1,NaN,1080347231,NaN,NaN,9.7,001631,   NaN,60.6,30.476750,-124.003960,0.51,NaN,NaN,16.846, NaN,NaN,NaN, NaN, NaN
20040327,002740,347250,30.477520,-124.002500,NaN,16.841,32.917,42.351,836.37,0.0, NaN,15.783,15.753, NaN,23.953,   NaN,14.56,1024.69,73.56,14.46,328.5,326.7,11.2,11.2,11.6,9.3,7.1,7.3,NaN, NaN,NaN,51.4,NaN,1080347261,NaN,NaN,10.2,001661,   NaN,63.3,30.477430,-124.002670,0.72,NaN,NaN,16.845, NaN,NaN,NaN, NaN, NaN
20040327,002810,347280,30.478210,-124.001130,NaN,16.841,32.917,42.351,596.37,0.0, NaN,15.782,15.749, NaN,23.953,   NaN,14.56,1024.66,74.08,14.47,325.6,322.9,10.6,11.1,6.1,3.9,6.8,7.5,NaN, NaN,NaN,52.5,NaN,1080347291,NaN,NaN,10.1,001691,   NaN,62.0,30.478140,-124.001260,0.43,NaN,NaN,16.845, NaN,NaN,NaN, NaN, NaN
20040327,002840,347310,30.478890,-123.999810,NaN,16.842,32.917,42.352,947.08,0.0, NaN,15.781,15.748, NaN,23.953,   NaN,14.56,1024.69,74.12,14.47,323.8,320.3,10.6,11.2,3.1,0.5,7.0,7.8,NaN, NaN,NaN,57.7,NaN,1080347321,NaN,NaN,10.3,001720,   NaN,62.8,30.478840,-123.999950,0.16,NaN,NaN,16.846, NaN,NaN,NaN, NaN, NaN
20040327,002910,347340,30.479600,-123.998480,NaN,16.843,32.916,42.352,585.59,0.0, NaN,15.782,15.749, NaN,23.952,   NaN,14.54,1024.69,73.28,14.44,322.5,318.5,10.7,11.5,1.4,358.7,7.1,8.1,NaN, NaN,NaN,65.3,NaN,1080347351,NaN,NaN,8.5,001750,   NaN,62.8,30.479530,-123.998610,0.46,NaN,NaN,16.847, NaN,NaN,NaN, NaN, NaN
20040327,002940,347370,30.480290,-123.997160,NaN,16.841,32.916,42.351,564.75,0.0, NaN,15.783,15.753, NaN,23.952,   NaN,14.51,1024.72,73.23,14.42,321.9,317.5,10.4,11.4,0.1,357.3,6.9,8.2,NaN, NaN,NaN,62.1,NaN,1080347381,NaN,NaN,9.2,001780,   NaN,63.0,30.480220,-123.997290,0.35,NaN,NaN,16.845, NaN,NaN,NaN, NaN, NaN
20040327,003010,347400,30.480960,-123.995800,NaN,16.849,32.916,42.358,598.96,0.0, NaN,15.787,15.759, NaN,23.951,   NaN,14.55,1024.67,74.08,14.45,322.5,318.9,10.4,11.5,0.9,359.4,7.0,8.2,NaN, NaN,NaN,46.9,NaN,1080347411,NaN,NaN,9.2,001810,   NaN,63.0,30.480910,-123.995940,0.43,NaN,NaN,16.853, NaN,NaN,NaN, NaN, NaN
20040327,003040,347430,30.481660,-123.994470,NaN,16.841,32.916,42.351,704.69,0.0, NaN,15.795,15.766, NaN,23.952,   NaN,14.59,1024.69,74.41,14.47,324.0,321.1,11.1,11.8,4.9,3.3,7.4,8.3,NaN, NaN,NaN,63.1,NaN,1080347441,NaN,NaN,9.8,001840,   NaN,62.4,30.481620,-123.994600,0.22,NaN,NaN,16.845, NaN,NaN,NaN, NaN, NaN
20040327,003110,347459,30.482350,-123.993130,NaN,16.834,32.916,42.344,643.25,0.0, NaN,15.802,15.772, NaN,23.954,   NaN,14.54,1024.68,72.65,14.42,324.4,321.9,11.3,12.0,6.2,4.9,7.5,8.4,NaN, NaN,NaN,51.8,NaN,1080347471,NaN,NaN,9.5,001870,   NaN,61.5,30.482300,-123.993240,0.51,NaN,NaN,16.838, NaN,NaN,NaN, NaN, NaN
20040327,003140,347490,30.483060,-123.991800,NaN,16.834,32.916,42.343,768.60,0.0, NaN,15.806,15.773, NaN,23.954,   NaN,14.52,1024.74,72.68,14.43,325.3,323.6,11.3,11.8,7.7,7.1,7.4,8.1,NaN, NaN,NaN,72.7,NaN,1080347501,NaN,NaN,8.7,001900,   NaN,63.8,30.483010,-123.991920,0.32,NaN,NaN,16.838, NaN,NaN,NaN, NaN, NaN
20040327,003210,347520,30.483740,-123.990460,NaN,16.835,32.916,42.345,872.50,0.0, NaN,15.806,15.774, NaN,23.954,   NaN,14.50,1024.72,72.23,14.40,325.3,323.0,11.1,11.4,6.5,4.9,7.3,7.8,NaN, NaN,NaN,39.3,NaN,1080347531,NaN,NaN,10.3,001930,   NaN,61.0,30.483680,-123.990580,0.63,NaN,NaN,16.839, NaN,NaN,NaN, NaN, NaN
20040327,003240,347550,30.484440,-123.989140,NaN,16.841,32.916,42.350,718.81,0.0, NaN,15.808,15.776, NaN,23.952,   NaN,14.53,1024.74,73.22,14.43,323.3,321.2,10.7,11.4,2.7,2.4,7.1,7.9,NaN, NaN,NaN,50.1,NaN,1080347561,NaN,NaN,8.9,001960,   NaN,64.0,30.484390,-123.989260,0.29,NaN,NaN,16.845, NaN,NaN,NaN, NaN, NaN
20040327,003310,347580,30.485110,-123.987810,NaN,16.841,32.916,42.350,659.94,0.0, NaN,15.812,15.777, NaN,23.953,   NaN,14.58,1024.70,74.00,14.46,322.0,319.2,10.6,11.5,1.0,360.0,7.2,8.2,NaN, NaN,NaN,57.6,NaN,1080347591,NaN,NaN,9.7,001990,   NaN,61.5,30.485060,-123.987930,0.58,NaN,NaN,16.845, NaN,NaN,NaN, NaN, NaN
20040327,003340,347610,30.485800,-123.986470,NaN,16.849,32.917,42.359,638.69,0.0, NaN,15.816,15.782, NaN,23.951,   NaN,14.56,1024.69,72.85,14.43,322.1,319.3,11.1,12.1,2.8,1.9,7.6,8.8,NaN, NaN,NaN,65.5,NaN,1080347621,NaN,NaN,9.1,002020,   NaN,62.1,30.485730,-123.986590,0.50,NaN,NaN,16.853, NaN,NaN,NaN, NaN, NaN
20040327,003410,347639,30.486480,-123.985160,NaN,16.852,32.917,42.362,647.52,0.0, NaN,15.817,15.783, NaN,23.951,   NaN,14.53,1024.72,72.79,14.43,321.6,317.9,11.1,12.3,2.1,0.5,7.6,9.1,NaN, NaN,NaN,64.8,NaN,1080347651,NaN,NaN,9.1,002050,   NaN,63.8,30.486420,-123.985280,0.35,NaN,NaN,16.856, NaN,NaN,NaN, NaN, NaN
20040327,003440,347670,30.487130,-123.983830,NaN,16.855,32.917,42.366,845.24,0.0, NaN,15.818,15.788, NaN,23.950,   NaN,14.55,1024.74,73.49,14.46,320.9,316.9,10.8,12.0,0.4,358.5,7.5,8.8,NaN, NaN,NaN,53.8,NaN,1080347681,NaN,NaN,9.8,002080,   NaN,62.3,30.487080,-123.983950,0.11,NaN,NaN,16.859, NaN,NaN,NaN, NaN, NaN
20040327,003510,347700,30.487840,-123.982480,NaN,16.855,32.915,42.362,891.14,0.0, NaN,15.819,15.791, NaN,23.948,   NaN,14.56,1024.77,73.61,14.45,322.4,318.5,10.6,11.5,2.0,359.5,7.2,8.3,NaN, NaN,NaN,66.8,NaN,1080347712,NaN,NaN,10.0,002111,   NaN,60.7,30.487780,-123.982600,0.64,NaN,NaN,16.859, NaN,NaN,NaN, NaN, NaN
20040327,003541,347731,30.488500,-123.981160,NaN,16.864,32.917,42.373,847.48,0.0, NaN,15.822,15.793, NaN,23.948,   NaN,14.53,1024.73,72.54,14.42,323.8,321.2,10.6,11.2,3.7,2.3,7.1,7.9,NaN, NaN,NaN,67.2,NaN,1080347742,NaN,NaN,9.1,002141,   NaN,61.7,30.488450,-123.981280,0.03,NaN,NaN,16.868, NaN,NaN,NaN, NaN, NaN
20040327,003611,347761,30.489190,-123.979810,NaN,16.858,32.918,42.368,777.58,0.0, NaN,15.825,15.797, NaN,23.950,   NaN,14.54,1024.76,73.45,14.43,324.9,322.2,10.4,10.9,4.5,2.7,6.8,7.5,NaN, NaN,NaN,75.1,NaN,1080347772,NaN,NaN,10.6,002171,   NaN,60.8,30.489120,-123.979940,0.15,NaN,NaN,16.862, NaN,NaN,NaN, NaN, NaN
20040327,003640,347790,30.489870,-123.978500,NaN,16.853,32.918,42.365,937.64,0.0, NaN,15.825,15.797, NaN,23.952,   NaN,14.59,1024.72,74.55,14.48,324.4,321.5,10.2,11.0,3.3,1.7,6.7,7.6,NaN, NaN,NaN,47.0,NaN,1080347802,NaN,NaN,10.8,002201,   NaN,63.6,30.489820,-123.978620,0.36,NaN,NaN,16.857, NaN,NaN,NaN, NaN, NaN
20040327,003711,347821,30.490530,-123.977180,NaN,16.856,32.919,42.368,656.20,0.0, NaN,15.824,15.793, NaN,23.951,   NaN,14.63,1024.72,74.88,14.49,323.5,320.0,10.6,11.4,3.1,1.1,7.0,8.1,NaN, NaN,NaN,55.4,NaN,1080347832,NaN,NaN,8.9,002231,   NaN,62.0,30.490470,-123.977300,0.50,NaN,NaN,16.860, NaN,NaN,NaN, NaN, NaN
20040327,003740,347850,30.491220,-123.975850,NaN,16.859,32.919,42.371,662.28,0.0, NaN,15.822,15.791, NaN,23.951,   NaN,14.59,1024.74,73.37,14.46,322.2,319.2,11.0,12.2,3.1,2.3,7.5,8.9,NaN, NaN,NaN,57.8,NaN,1080347862,NaN,NaN,9.4,002261,   NaN,63.4,30.491160,-123.975980,0.32,NaN,NaN,16.863, NaN,NaN,NaN, NaN, NaN